Location: Devore Heights
(34.2372°N, 117.4156°W)
Time: 18:12:27
(UTC+00:00)

S-56A Canister/Altair - Pass Details

Date: 13 September 2024
Orbit: 636 x 2487 km, 38.9° (Epoch: 14 October)

Event Time Altitude Azimuth Distance (km) Brightness Sun altitude
Rises 00:52:06 0° 205° (SSW) 3,002 11.0 13.1°
Reaches altitude 10° 00:54:37 10° 190° (S) 2,200 10.1 12.6°
Maximum altitude 00:58:38 24° 137° (SE) 1,667 9.0 11.8°
Drops below altitude 10° 01:03:43 10° 85° (E) 2,843 9.9 10.7°
Sets 01:07:28 0° 73° (ENE) 4,127 10.6 9.9°
